Time,TemperatureF,DewpointF,PressureIn,WindDirection,WindDirectionDegrees,WindSpeedMPH,WindSpeedGustMPH,Humidity,HourlyPrecipIn,Conditions,Clouds,dailyrainin,SolarRadiationWatts/m^2,SoftwareType,DateUTC
2013-03-31 00:22:00,26.0,19.0,-100.00,North,-999,3.0,5.0,75,0.00,,,0.08,0.000000,,2013-03-31 06:22:00,
2013-03-31 00:32:00,26.0,19.0,-100.00,North,-999,3.0,5.0,75,0.00,,,0.08,0.000000,,2013-03-31 06:32:00,
2013-03-31 00:42:00,26.0,19.0,-100.00,North,-999,3.0,5.0,75,0.00,,,0.08,0.000000,,2013-03-31 06:42:00,
2013-03-31 00:52:00,26.0,19.0,-100.00,North,-999,3.0,5.0,75,0.00,,,0.08,0.000000,,2013-03-31 06:52:00,
2013-03-31 01:22:00,25.0,19.0,-100.00,North,-999,2.0,3.0,77,0.00,,,0.06,1.000000,,2013-03-31 07:22:00,
2013-03-31 01:32:00,25.0,19.0,-100.00,North,-999,2.0,3.0,77,0.00,,,0.06,1.000000,,2013-03-31 07:32:00,
2013-03-31 01:42:00,25.0,19.0,-100.00,North,-999,2.0,3.0,77,0.00,,,0.06,1.000000,,2013-03-31 07:42:00,
2013-03-31 01:52:00,25.0,19.0,-100.00,North,-999,2.0,3.0,77,0.00,,,0.06,1.000000,,2013-03-31 07:52:00,
2013-03-31 02:22:00,23.0,19.0,-100.00,North,-999,2.0,4.0,83,0.00,,,0.05,0.000000,,2013-03-31 08:22:00,
2013-03-31 02:32:00,23.0,19.0,-100.00,North,-999,2.0,4.0,83,0.00,,,0.05,0.000000,,2013-03-31 08:32:00,
2013-03-31 02:42:00,23.0,19.0,-100.00,North,-999,2.0,4.0,83,0.00,,,0.05,0.000000,,2013-03-31 08:42:00,
2013-03-31 02:52:00,23.0,19.0,-100.00,North,-999,2.0,4.0,83,0.00,,,0.05,0.000000,,2013-03-31 08:52:00,
2013-03-31 03:22:00,23.0,18.0,-100.00,North,-999,3.0,4.0,82,0.00,,,0.05,0.000000,,2013-03-31 09:22:00,
2013-03-31 03:32:00,23.0,18.0,-100.00,North,-999,3.0,4.0,82,0.00,,,0.05,0.000000,,2013-03-31 09:32:00,
2013-03-31 03:42:00,23.0,18.0,-100.00,North,-999,3.0,4.0,82,0.00,,,0.05,0.000000,,2013-03-31 09:42:00,
2013-03-31 03:52:00,23.0,18.0,-100.00,North,-999,3.0,4.0,82,0.00,,,0.05,0.000000,,2013-03-31 09:52:00,
2013-03-31 04:23:00,23.0,19.0,-100.00,North,-999,2.0,5.0,84,0.00,,,0.05,0.000000,,2013-03-31 10:23:00,
2013-03-31 04:32:00,23.0,19.0,-100.00,North,-999,2.0,5.0,84,0.00,,,0.05,0.000000,,2013-03-31 10:32:00,
2013-03-31 04:42:00,23.0,19.0,-100.00,North,-999,2.0,5.0,84,0.00,,,0.05,0.000000,,2013-03-31 10:42:00,
2013-03-31 04:52:00,23.0,19.0,-100.00,North,-999,2.0,5.0,84,0.00,,,0.05,0.000000,,2013-03-31 10:52:00,
2013-03-31 05:23:00,20.0,16.0,-100.00,North,-999,1.0,4.0,86,0.00,,,0.05,0.000000,,2013-03-31 11:23:00,
2013-03-31 05:32:00,20.0,16.0,-100.00,North,-999,1.0,4.0,86,0.00,,,0.05,0.000000,,2013-03-31 11:32:00,
2013-03-31 05:42:00,20.0,16.0,-100.00,North,-999,1.0,4.0,86,0.00,,,0.05,0.000000,,2013-03-31 11:42:00,
2013-03-31 05:52:00,20.0,16.0,-100.00,North,-999,1.0,4.0,86,0.00,,,0.05,0.000000,,2013-03-31 11:52:00,
2013-03-31 06:22:00,20.0,17.0,-100.00,North,-999,1.0,3.0,88,0.00,,,0.05,0.000000,,2013-03-31 12:22:00,
2013-03-31 06:32:00,20.0,17.0,-100.00,North,-999,1.0,3.0,88,0.00,,,0.05,0.000000,,2013-03-31 12:32:00,
2013-03-31 06:42:00,20.0,17.0,-100.00,North,-999,1.0,3.0,88,0.00,,,0.05,0.000000,,2013-03-31 12:42:00,
2013-03-31 07:22:00,19.0,16.0,-100.00,North,-999,2.0,4.0,87,0.00,,,-99.99,1.000000,,2013-03-31 13:22:00,
2013-03-31 07:32:00,19.0,16.0,-100.00,North,-999,2.0,4.0,87,0.00,,,-99.99,1.000000,,2013-03-31 13:32:00,
2013-03-31 07:42:00,19.0,16.0,-100.00,North,-999,2.0,4.0,87,0.00,,,-99.99,1.000000,,2013-03-31 13:42:00,
2013-03-31 07:52:00,19.0,16.0,-100.00,North,-999,2.0,4.0,87,0.00,,,-99.99,1.000000,,2013-03-31 13:52:00,
2013-03-31 08:22:00,23.0,18.0,-100.00,North,-999,3.0,6.0,81,0.00,,,0.05,42.000000,,2013-03-31 14:22:00,
2013-03-31 08:32:00,23.0,18.0,-100.00,North,-999,3.0,6.0,81,0.00,,,0.05,42.000000,,2013-03-31 14:32:00,
2013-03-31 08:42:00,23.0,18.0,-100.00,North,-999,3.0,6.0,81,0.00,,,0.05,42.000000,,2013-03-31 14:42:00,
2013-03-31 08:52:00,23.0,18.0,-100.00,North,-999,3.0,6.0,81,0.00,,,0.05,42.000000,,2013-03-31 14:52:00,
2013-03-31 09:22:00,25.0,17.0,-100.00,North,-999,5.0,7.0,71,0.00,,,0.05,228.000000,,2013-03-31 15:22:00,
2013-03-31 09:33:00,25.0,17.0,-100.00,North,-999,5.0,7.0,71,0.00,,,0.05,228.000000,,2013-03-31 15:33:00,
2013-03-31 09:43:00,25.0,17.0,-100.00,North,-999,5.0,7.0,71,0.00,,,0.05,228.000000,,2013-03-31 15:43:00,
2013-03-31 09:53:00,25.0,17.0,-100.00,North,-999,5.0,7.0,71,0.00,,,0.05,228.000000,,2013-03-31 15:53:00,
2013-03-31 10:22:00,30.0,20.0,-100.00,North,-999,5.0,6.0,65,0.00,,,0.01,408.000000,,2013-03-31 16:22:00,
2013-03-31 10:33:00,30.0,20.0,-100.00,North,-999,5.0,6.0,65,0.00,,,0.01,408.000000,,2013-03-31 16:33:00,
2013-03-31 10:42:00,30.0,20.0,-100.00,North,-999,5.0,6.0,65,0.00,,,0.01,408.000000,,2013-03-31 16:42:00,
2013-03-31 10:52:00,30.0,20.0,-100.00,North,-999,5.0,6.0,65,0.00,,,0.01,408.000000,,2013-03-31 16:52:00,
2013-03-31 11:22:00,42.0,24.0,-100.00,North,-999,3.0,5.0,48,0.00,,,0.00,562.000000,,2013-03-31 17:22:00,
2013-03-31 11:32:00,42.0,24.0,-100.00,North,-999,3.0,5.0,48,0.00,,,0.00,562.000000,,2013-03-31 17:32:00,
2013-03-31 11:42:00,42.0,24.0,-100.00,North,-999,3.0,5.0,48,0.00,,,0.00,562.000000,,2013-03-31 17:42:00,
2013-03-31 11:52:00,42.0,24.0,-100.00,North,-999,3.0,5.0,48,0.00,,,0.00,562.000000,,2013-03-31 17:52:00,
2013-03-31 12:22:00,39.0,25.0,-100.00,North,-999,5.0,7.0,58,0.00,,,0.00,702.000000,,2013-03-31 18:22:00,
2013-03-31 12:32:00,39.0,25.0,-100.00,North,-999,5.0,7.0,58,0.00,,,0.00,702.000000,,2013-03-31 18:32:00,
2013-03-31 12:42:00,39.0,25.0,-100.00,North,-999,5.0,7.0,58,0.00,,,0.00,702.000000,,2013-03-31 18:42:00,
2013-03-31 12:52:00,39.0,25.0,-100.00,North,-999,5.0,7.0,58,0.00,,,0.00,702.000000,,2013-03-31 18:52:00,
2013-03-31 13:22:00,43.0,24.0,-100.00,North,-999,3.0,6.0,47,0.00,,,0.00,802.000000,,2013-03-31 19:22:00,
2013-03-31 13:32:00,43.0,24.0,-100.00,North,-999,3.0,6.0,47,0.00,,,0.00,802.000000,,2013-03-31 19:32:00,
2013-03-31 13:42:00,43.0,24.0,-100.00,North,-999,3.0,6.0,47,0.00,,,0.00,802.000000,,2013-03-31 19:42:00,
2013-03-31 13:53:00,43.0,24.0,-100.00,North,-999,3.0,6.0,47,0.00,,,0.00,802.000000,,2013-03-31 19:53:00,
2013-03-31 14:22:00,44.0,23.0,-100.00,North,-999,3.0,6.0,44,0.00,,,0.00,855.000000,,2013-03-31 20:22:00,
2013-03-31 14:33:00,44.0,23.0,-100.00,North,-999,3.0,6.0,44,0.00,,,0.00,855.000000,,2013-03-31 20:33:00,
2013-03-31 14:42:00,44.0,23.0,-100.00,North,-999,3.0,6.0,44,0.00,,,0.00,855.000000,,2013-03-31 20:42:00,
2013-03-31 14:52:00,44.0,23.0,-100.00,North,-999,3.0,6.0,44,0.00,,,0.00,855.000000,,2013-03-31 20:52:00,
2013-03-31 15:22:00,46.0,24.0,-100.00,North,-999,5.0,7.0,42,0.00,,,0.00,821.000000,,2013-03-31 21:22:00,
2013-03-31 15:33:00,46.0,24.0,-100.00,North,-999,5.0,7.0,42,0.00,,,0.00,821.000000,,2013-03-31 21:33:00,
2013-03-31 15:43:00,46.0,24.0,-100.00,North,-999,5.0,7.0,42,0.00,,,0.00,821.000000,,2013-03-31 21:43:00,
2013-03-31 15:53:00,46.0,24.0,-100.00,North,-999,5.0,7.0,42,0.00,,,0.00,821.000000,,2013-03-31 21:53:00,
2013-03-31 16:23:00,45.0,27.0,-100.00,North,-999,5.0,7.0,50,0.00,,,0.00,733.000000,,2013-03-31 22:23:00,
2013-03-31 16:33:00,45.0,27.0,-100.00,North,-999,5.0,7.0,50,0.00,,,0.00,733.000000,,2013-03-31 22:33:00,
2013-03-31 17:22:00,45.0,23.0,-100.00,North,-999,6.0,7.0,42,-99.99,,,0.00,598.000000,,2013-03-31 23:22:00,
2013-03-31 18:22:00,48.0,23.0,-100.00,North,-999,4.0,8.0,37,-99.99,,,0.00,426.000000,,2013-04-01 00:22:00,
2013-03-31 18:32:00,48.0,23.0,-100.00,North,-999,4.0,8.0,37,-99.99,,,0.00,426.000000,,2013-04-01 00:32:00,
2013-03-31 18:42:00,48.0,23.0,-100.00,North,-999,4.0,8.0,37,-99.99,,,0.00,426.000000,,2013-04-01 00:42:00,
2013-03-31 18:52:00,48.0,23.0,-100.00,North,-999,4.0,8.0,37,-99.99,,,0.00,426.000000,,2013-04-01 00:52:00,
2013-03-31 19:22:00,48.0,23.0,-100.00,North,-999,3.0,5.0,37,0.00,,,0.00,231.000000,,2013-04-01 01:22:00,
2013-03-31 19:32:00,48.0,23.0,-100.00,North,-999,3.0,5.0,37,0.00,,,0.00,231.000000,,2013-04-01 01:32:00,
2013-03-31 19:42:00,48.0,23.0,-100.00,North,-999,3.0,5.0,37,0.00,,,0.00,231.000000,,2013-04-01 01:42:00,
2013-03-31 19:52:00,48.0,23.0,-100.00,North,-999,3.0,5.0,37,0.00,,,0.00,231.000000,,2013-04-01 01:52:00,
2013-03-31 20:22:00,40.0,22.0,-100.00,North,-999,5.0,7.0,48,0.00,,,0.00,12.000000,,2013-04-01 02:22:00,
2013-03-31 20:32:00,40.0,22.0,-100.00,North,-999,5.0,7.0,48,0.00,,,0.00,12.000000,,2013-04-01 02:32:00,
2013-03-31 20:42:00,40.0,22.0,-100.00,North,-999,5.0,7.0,48,0.00,,,0.00,12.000000,,2013-04-01 02:42:00,
2013-03-31 20:52:00,40.0,22.0,-100.00,North,-999,5.0,7.0,48,0.00,,,0.00,12.000000,,2013-04-01 02:52:00,
2013-03-31 21:22:00,34.0,23.0,-100.00,North,-999,3.0,7.0,64,0.00,,,0.00,1.000000,,2013-04-01 03:22:00,
2013-03-31 21:33:00,34.0,23.0,-100.00,North,-999,3.0,7.0,64,0.00,,,0.00,1.000000,,2013-04-01 03:33:00,
2013-03-31 21:43:00,34.0,23.0,-100.00,North,-999,3.0,7.0,64,0.00,,,0.00,1.000000,,2013-04-01 03:43:00,
2013-03-31 21:52:00,34.0,23.0,-100.00,North,-999,3.0,7.0,64,0.00,,,0.00,1.000000,,2013-04-01 03:52:00,
2013-03-31 22:23:00,29.0,21.0,-100.00,North,-999,5.0,8.0,73,0.00,,,0.00,1.000000,,2013-04-01 04:23:00,
2013-03-31 22:32:00,29.0,21.0,-100.00,North,-999,5.0,8.0,73,0.00,,,0.00,1.000000,,2013-04-01 04:32:00,
2013-03-31 22:43:00,29.0,21.0,-100.00,North,-999,5.0,8.0,73,0.00,,,0.00,1.000000,,2013-04-01 04:43:00,
2013-03-31 22:52:00,29.0,21.0,-100.00,North,-999,5.0,8.0,73,0.00,,,0.00,1.000000,,2013-04-01 04:52:00,
2013-03-31 23:22:00,30.0,23.0,-100.00,North,-999,2.0,8.0,76,0.00,,,0.00,1.000000,,2013-04-01 05:22:00,
2013-03-31 23:32:00,30.0,23.0,-100.00,North,-999,2.0,8.0,76,0.00,,,0.00,1.000000,,2013-04-01 05:32:00,
2013-03-31 23:42:00,30.0,23.0,-100.00,North,-999,2.0,8.0,76,0.00,,,0.00,1.000000,,2013-04-01 05:42:00,
2013-03-31 23:52:00,30.0,23.0,-100.00,North,-999,2.0,8.0,76,0.00,,,0.00,1.000000,,2013-04-01 05:52:00,